Regional Weather Roundup
Issued by NWS

Home | Current Version | Previous Version | Text Only | Print | Product List | Glossary Off
Versions: 1 2 3 4 5 6 7 8 9 10 11 12 13 14 15 16 17 18 19 20 21 22 23 24 25 26 27 28 29 30 31 32 33 34 35 36 37 38 39 40 41 42 43 44 45 46 47

000
ASUS45 KTFX 280110
RWRMT
MONTANA REGIONAL WEATHER ROUNDUP
NATIONAL WEATHER SERVICE GREAT FALLS MT
700 PM MDT WED MAY 27 2015

NOTE: "FAIR" INDICATES FEW OR NO CLOUDS BELOW 12000 FEET WITH NO
SIGNIFICANT WEATHER AND/OR OBSTRUCTIONS TO VISIBILITY.

MTZ001>007-043-280200-
WEST OF THE DIVIDE

CITY           SKY/WX    TMP DP  RH WIND       PRES   REMARKS
KALISPELL      LGT RAIN  66  45  46 CALM      29.96F
MISSOULA       PTSUNNY   65  41  41 NW16      29.99F
BUTTE          CLOUDY    51  42  71 S8        30.04S
MULLAN PASS    PTSUNNY   50  41  71 VRB3      30.08S
DEER LODGE       N/A     54  48  82 W9        30.05R
EUREKA           N/A     72  45  37 CALM      29.94F
HAMILTON         N/A     54  46  76 SW3       30.02R
LIBBY            N/A     73  45  35 S3        29.96S
$$

MTZ008-052>055-280200-
SOUTHWEST MONTANA

CITY           SKY/WX    TMP DP  RH WIND       PRES   REMARKS
BOZEMAN        PTSUNNY   58  45  62 E7        30.01S
DILLON         CLOUDY    52  45  77 W8        30.04F
W YELLOWSTONE  CLOUDY    46  41  81 SE3       30.09S
$$

MTZ009-010-012-014-046-048-049-054-280200-
EAST SLOPES AND CENTRAL MONTANA

CITY           SKY/WX    TMP DP  RH WIND       PRES   REMARKS
CUT BANK       CLOUDY    54  50  86 W6        29.98S
GREAT FALLS    PTSUNNY   63  48  58 N8        29.96S
MALMSTROM AFB  MOSUNNY   63  48  59 N8        29.96S
HELENA         CLOUDY    59  48  67 NW14G20   29.98R
$$

MTZ011-013-016-021-045-047-050-051-280200-
NORTH CENTRAL MONTANA

CITY           SKY/WX    TMP DP  RH WIND       PRES   REMARKS
HAVRE          CLOUDY    59  55  87 S8        29.91S
LEWISTOWN      PTSUNNY   62  49  62 W3        29.97S
N BAR RANCH    FAIR      63  48  59 W6        30.00S
CHINOOK          N/A     63  54  72 W5        29.91S
FORT BENTON      N/A     64  48  55 SW7       29.95R
$$

MTZ017>020-022>027-061-062-280200-
NORTHEAST MONTANA

CITY           SKY/WX    TMP DP  RH WIND       PRES   REMARKS
GLASGOW        PTSUNNY   67  55  65 SW6       29.86F
JORDAN           N/A     68  53  58 W5        29.89F
SIDNEY         CLOUDY    66  55  68 E7        29.90S
WOLF POINT     CLOUDY    69  55  60 SE3       29.88S
PLENTYWOOD       N/A     64  52  63 E9        29.91F
POPLAR           N/A     68  54  60 SE5       29.89F
$$

MTZ028>42-056>058-280200-
SOUTHCENTRAL AND SOUTHEAST MONTANA

CITY           SKY/WX    TMP DP  RH WIND       PRES   REMARKS
BAKER          PTSUNNY   63  54  72 SE10      29.92F
BILLINGS       PTSUNNY   63  52  67 NE6       29.96R
LIVINGSTON     PTSUNNY   59  43  55 W12       29.99F
MILES CITY     TSTM      60  56  86 NE5       29.91R
BIG TIMBER       N/A     57  41  54 SW10      30.00S
FORSYTH          N/A     64  54  68 CALM      29.90S
$$

REGIONAL REPORTS...DAKOTAS

CITY           SKY/WX    TMP DP  RH WIND       PRES   REMARKS
WILLISTON      CLOUDY    65  53  65 SE8       29.90F
MINOT          LGT RAIN  64  52  64 E12       29.91R
DICKINSON      CLOUDY    59  55  87 E13       29.90F
BEACH          FAIR      63  59  88 SE10      29.91S
CROSBY         FAIR      61  59  94 E5        29.94R
WATFORD CITY   FAIR      59  57  94 SE12      29.88
BISMARCK       CLOUDY    75  51  43 SW9       29.90S
GRAND FORKS    PTSUNNY   69  54  58 N7        29.95S
FARGO          MOCLDY    75  56  51 NE6       29.94S
BUFFALO SD       N/A     58  56  93 NE8       29.87S
RAPID CITY     MOSUNNY   69  59  70 S9        29.90S
$$

REGIONAL REPORTS...WYOMING/IDAHO/WASHINGTON

CITY           SKY/WX    TMP DP  RH WIND       PRES   REMARKS
GILLETTE       MOSUNNY   64  54  69 NE7       29.95R
SHERIDAN       PTSUNNY   63  52  67 NW6       29.95R
BUFFALO WY     CLOUDY    63  50  62 N10       29.99R
CODY           PTSUNNY   61  50  67 NE7       29.97S
YELLOWSTONE LA   N/A     45  36  70 CALM      30.14F
IDAHO FALLS    CLOUDY    61  42  49 S8        30.00F
SALMON         PTSUNNY   59  41  51 CALM      30.00F
BOISE          PTSUNNY   71  41  33 N13       29.95S
SPOKANE        PTSUNNY   72  48  42 NE8       29.96S
$$

REGIONAL REPORTS...ALBERTA

CITY           SKY/WX    TMP DP  RH WIND       PRES   REMARKS
EDMONTON       PTSUNNY   77  45  31 W8        29.84F
CALGARY        PTSUNNY   70  43  37 W10G17    29.94R
MEDICINE HAT   PTSUNNY   64  55  72 NE6       29.90S
$$

REGIONAL REPORTS...SASKATCHEWAN

CITY           SKY/WX    TMP DP  RH WIND       PRES   REMARKS
SWIFT CURRENT  PTSUNNY   59  50  72 S13G21    29.94R
REGINA         PTSUNNY   70  48  46 E12       29.93R
SASKATOON      PTSUNNY   70  36  28 N5        29.95S
$$


USA.gov is the U.S. government's official web portal to all federal, state and local government web resources and services.